Regional Weather Roundup
Issued by NWS Midland/Odessa, TX

Home | Current Version | Previous Version | Text Only | Print | Product List | Glossary On
Versions: 1 2 3 4 5 6 7 8 9 10 11 12 13 14 15 16 17 18 19 20 21 22 23 24 25 26 27 28 29 30 31 32 33 34 35 36 37 38 39 40 41 42 43 44 45 46 47 48 49 50
000
ASUS44 KMAF 301910
RWRMAF
MIDLAND AREA WEATHER ROUNDUP
NATIONAL WEATHER SERVICE MIDLAND TX
200 PM CDT SAT APR 30 2016

...IN SOUTHWEST TEXAS AND SOUTHEAST NEW MEXICO...

CITY           SKY/WX    TMP DP  RH WIND       PRES   REMARKS
ALPINE         SUNNY     73  18  12 SW14G20   29.93F
ANDREWS        FAIR      70  40  33 NW5       29.84F
ARTESIA        SUNNY     72  30  21 CALM      29.79F
BIG SPRING     SUNNY     70  44  38 CALM      29.85F
CARLSBAD       SUNNY     75  25  15 MISG      29.78F
DRYDEN           N/A     85  21   9 VRB6      29.75F
FORT STOCKTON  SUNNY     79  28  15 VRB6      29.82F
GUAD PASS      SUNNY     71  23  16 SW28G36   29.87F
HOBBS          MOSUNNY   72  36  26 S12       29.84F
MARFA          SUNNY     71  18  13 W12       29.90F
MIDLAND AIRPK  SUNNY     75  40  28 SE3       29.83F
MIDLAND INTL   SUNNY     74  38  27 S8        29.83F
ODESSA         SUNNY     74  35  24 CALM      29.83F
PECOS          SUNNY     78  26  14 NW3       29.79F
PRESIDIO       FAIR      79  22  11 SW7       29.81F
SEMINOLE       MOSUNNY   70  40  34 S6        29.85F
SNYDER           N/A     66  45  46 CALM      29.84F
WINK           SUNNY     77  30  17 S9        29.79F
$$
...OTHER STATIONS IN TEXAS...

CITY           SKY/WX    TMP DP  RH WIND       PRES   REMARKS
ABILENE        SUNNY     68  50  52 VRB3      29.83F
AMARILLO       CLOUDY    57  38  48 W8        29.89F
AUSTIN         PTSUNNY   79  67  66 N8        29.75F
BROWNSVILLE    PTSUNNY   87  78  74 NE9       29.65F HX 100
CORPUS CHRISTI PTSUNNY   91  70  49 E9        29.66F
DALLAS FTW     PTSUNNY   71  58  63 W8        29.78F
DEL RIO        SUNNY     87  32  14 CALM      29.74F
EL PASO        MOSUNNY   73  25  16 SW14G20   29.83F
HOUSTON INT    MOSUNNY   83  61  47 E7G16     29.70F
LUBBOCK        MOSUNNY   65  38  36 CALM      29.84F
SAN ANGELO     SUNNY     74  48  39 VRB3      29.82F
SAN ANTONIO    PTSUNNY   82  60  47 NE6       29.76F
WACO           MOSUNNY   74  62  66 N6        29.78F
WICHITA FALLS  NOT AVBL
$$
...OTHER LOCATIONS IN NEW MEXICO...

CITY           SKY/WX    TMP DP  RH WIND       PRES   REMARKS
ALAMAGORDO     SUNNY     68  25  19 NW7G24    29.84F
ALBUQUERQUE    CLOUDY    58  34  40 NW13      29.85F
CANNON AFB     MOSUNNY   61  38  41 W8        29.84F
CLOVIS         SUNNY     61  39  44 E5        29.88F
HOLLOMAN AFB   SUNNY     70  25  18 W14       29.81F
ROSWELL        SUNNY     72  29  20 S8G16     29.79F
RUIDOSO          N/A     57  19  23 S7        29.90F
SANTA FE       PTSUNNY   56  30  37 SW13G22   29.86F
TRUTH OR CONSE MOSUNNY   66  25  21 SW15      29.82F
TUCUMCARI      PTSUNNY   57  38  48 CALM      29.87F
$$



USA.gov is the U.S. government's official web portal to all federal, state and local government web resources and services.